TimeEDT,TemperatureF,Dew PointF,Humidity,Sea Level PressureIn,VisibilityMPH,Wind Direction,Wind SpeedMPH,Gust SpeedMPH,PrecipitationIn,Events,Conditions,WindDirDegrees,DateUTC
12:53 AM,46.9,39.9,77,29.93,10.0,WNW,8.1,17.3,N/A,,Overcast,290,2013-05-12 04:53:00
1:07 AM,46.4,39.2,76,29.93,10.0,WNW,10.4,17.3,N/A,,Overcast,300,2013-05-12 05:07:00
1:36 AM,46.4,37.4,71,29.93,10.0,WNW,9.2,18.4,N/A,,Overcast,300,2013-05-12 05:36:00
1:53 AM,46.0,37.9,73,29.95,10.0,WNW,11.5,-,N/A,,Overcast,300,2013-05-12 05:53:00
2:53 AM,44.1,34.0,68,29.94,10.0,NW,8.1,-,N/A,,Mostly Cloudy,310,2013-05-12 06:53:00
3:53 AM,41.0,34.0,76,29.95,10.0,WNW,3.5,-,N/A,,Clear,290,2013-05-12 07:53:00
4:53 AM,39.0,33.1,79,29.95,10.0,Calm,Calm,-,N/A,,Clear,0,2013-05-12 08:53:00
5:53 AM,37.0,33.1,86,29.96,10.0,Calm,Calm,-,N/A,,Clear,0,2013-05-12 09:53:00
6:53 AM,37.0,33.1,86,29.98,10.0,Calm,Calm,-,N/A,,Clear,0,2013-05-12 10:53:00
7:53 AM,41.0,33.1,73,29.98,10.0,WSW,4.6,-,N/A,,Clear,250,2013-05-12 11:53:00
8:53 AM,44.1,32.0,63,29.99,10.0,West,6.9,-,N/A,,Partly Cloudy,260,2013-05-12 12:53:00
9:53 AM,46.9,33.1,59,29.99,10.0,WSW,9.2,-,N/A,,Mostly Cloudy,250,2013-05-12 13:53:00
10:53 AM,46.9,28.0,48,29.99,10.0,West,9.2,23.0,N/A,,Overcast,260,2013-05-12 14:53:00
11:53 AM,48.9,26.1,41,29.99,10.0,WNW,13.8,24.2,N/A,,Mostly Cloudy,290,2013-05-12 15:53:00
12:53 PM,48.0,26.1,42,30.01,10.0,West,13.8,23.0,N/A,,Overcast,260,2013-05-12 16:53:00
1:53 PM,50.0,28.0,43,30.01,10.0,West,11.5,21.9,N/A,,Overcast,280,2013-05-12 17:53:00
2:53 PM,52.0,28.9,41,30.02,10.0,West,16.1,27.6,N/A,,Mostly Cloudy,260,2013-05-12 18:53:00
3:53 PM,50.0,28.0,43,30.02,10.0,West,11.5,21.9,N/A,,Mostly Cloudy,260,2013-05-12 19:53:00
4:53 PM,50.0,27.0,41,30.02,10.0,WNW,17.3,23.0,N/A,,Overcast,300,2013-05-12 20:53:00
5:53 PM,50.0,26.1,39,30.04,10.0,WNW,11.5,20.7,N/A,,Overcast,290,2013-05-12 21:53:00
6:53 PM,50.0,27.0,41,30.04,10.0,West,15.0,25.3,N/A,,Mostly Cloudy,280,2013-05-12 22:53:00
7:53 PM,48.9,28.9,46,30.04,10.0,Variable,5.8,-,N/A,,Overcast,0,2013-05-12 23:53:00
8:53 PM,46.9,28.9,50,30.06,10.0,West,6.9,-,N/A,,Mostly Cloudy,270,2013-05-13 00:53:00
9:53 PM,46.0,28.0,50,30.09,10.0,WNW,4.6,-,N/A,,Mostly Cloudy,290,2013-05-13 01:53:00
10:53 PM,45.0,27.0,49,30.11,10.0,WNW,10.4,-,N/A,,Mostly Cloudy,300,2013-05-13 02:53:00
11:53 PM,43.0,27.0,53,30.12,10.0,WNW,6.9,-,N/A,,Clear,290,2013-05-13 03:53:00